Time,TemperatureF,DewpointF,PressureIn,WindDirection,WindDirectionDegrees,WindSpeedMPH,WindSpeedGustMPH,Humidity,HourlyPrecipIn,Conditions,Clouds,dailyrainin,SoftwareType,DateUTC
2013-07-24 00:43:00,68.0,68.0,29.59,North,3,0.0,0.0,100,0.00,,,1.75,,2013-07-24 04:43:00,
2013-07-24 00:52:00,68.0,68.0,29.59,North,3,0.0,0.0,100,0.00,,,1.75,,2013-07-24 04:52:00,
2013-07-24 01:52:00,67.0,67.0,29.58,North,3,0.0,0.0,100,0.00,,,1.71,,2013-07-24 05:52:00,
2013-07-24 02:01:00,67.0,67.0,29.58,North,3,0.0,0.0,100,0.00,,,1.71,,2013-07-24 06:01:00,
2013-07-24 02:53:00,67.0,67.0,29.58,North,4,0.0,1.0,100,0.00,,,1.56,,2013-07-24 06:53:00,
2013-07-24 03:02:00,67.0,67.0,29.59,North,4,0.0,0.0,100,0.00,,,1.56,,2013-07-24 07:02:00,
2013-07-24 03:12:00,66.0,66.0,29.59,North,4,0.0,0.0,100,0.00,,,1.56,,2013-07-24 07:12:00,
2013-07-24 03:32:00,66.0,66.0,29.59,North,4,0.0,0.0,100,0.00,,,1.56,,2013-07-24 07:32:00,
2013-07-24 04:12:00,67.0,67.0,29.59,North,4,0.0,0.0,100,0.00,,,0.87,,2013-07-24 08:12:00,
2013-07-24 04:32:00,67.0,67.0,29.59,North,4,0.0,0.0,100,0.00,,,0.87,,2013-07-24 08:32:00,
2013-07-24 04:43:00,67.0,67.0,29.59,North,4,0.0,0.0,100,0.00,,,0.46,,2013-07-24 08:43:00,
2013-07-24 04:52:00,67.0,67.0,29.59,North,4,0.0,0.0,100,0.00,,,0.46,,2013-07-24 08:52:00,
2013-07-24 05:02:00,66.0,66.0,29.59,North,4,0.0,0.0,100,0.00,,,0.46,,2013-07-24 09:02:00,
2013-07-24 05:22:00,66.0,66.0,29.59,North,4,0.0,0.0,100,0.00,,,0.46,,2013-07-24 09:22:00,
2013-07-24 05:32:00,66.0,66.0,29.59,North,4,0.0,0.0,100,0.00,,,0.46,,2013-07-24 09:32:00,
2013-07-24 05:43:00,66.0,66.0,29.59,North,4,0.0,0.0,100,0.00,,,0.21,,2013-07-24 09:43:00,
2013-07-24 05:53:00,67.0,67.0,29.59,North,4,0.0,0.0,100,0.00,,,0.21,,2013-07-24 09:53:00,
2013-07-24 06:02:00,67.0,67.0,29.60,North,4,0.0,0.0,100,0.00,,,0.21,,2013-07-24 10:02:00,
2013-07-24 06:43:00,66.0,66.0,29.60,North,4,0.0,0.0,100,0.00,,,0.16,,2013-07-24 10:43:00,
2013-07-24 06:53:00,66.0,66.0,29.60,North,4,0.0,0.0,100,0.00,,,0.16,,2013-07-24 10:53:00,
2013-07-24 07:02:00,66.0,66.0,29.61,North,4,0.0,0.0,100,0.00,,,0.16,,2013-07-24 11:02:00,
2013-07-24 07:12:00,66.0,66.0,29.61,North,4,0.0,0.0,100,0.00,,,0.16,,2013-07-24 11:12:00,
2013-07-24 07:22:00,66.0,66.0,29.61,North,4,0.0,0.0,100,0.00,,,0.16,,2013-07-24 11:22:00,
2013-07-24 07:43:00,67.0,67.0,29.62,North,4,0.0,0.0,100,0.00,,,0.06,,2013-07-24 11:43:00,
2013-07-24 07:52:00,67.0,67.0,29.62,NNE,23,0.0,0.0,100,0.00,,,0.06,,2013-07-24 11:52:00,
2013-07-24 08:02:00,67.0,67.0,29.62,NNE,18,0.0,0.0,100,0.00,,,0.06,,2013-07-24 12:02:00,
2013-07-24 08:32:00,68.0,68.0,29.63,NNE,18,0.0,0.0,100,0.00,,,0.06,,2013-07-24 12:32:00,
2013-07-24 08:52:00,69.0,69.0,29.64,NNE,18,0.0,1.0,100,0.00,,,0.02,,2013-07-24 12:52:00,
2013-07-24 09:32:00,72.0,72.0,29.64,North,10,0.0,0.0,100,0.00,,,0.02,,2013-07-24 13:32:00,
2013-07-24 09:53:00,75.0,75.0,29.64,North,10,0.0,0.0,100,0.00,,,0.01,,2013-07-24 13:53:00,
2013-07-24 10:02:00,76.0,74.0,29.65,SE,141,0.0,1.0,92,0.00,,,0.01,,2013-07-24 14:02:00,
2013-07-24 10:12:00,77.0,74.0,29.65,SSW,196,0.0,1.0,89,0.00,,,0.01,,2013-07-24 14:12:00,
2013-07-24 10:22:00,78.0,73.0,29.65,SSE,155,0.0,1.0,84,0.00,,,0.01,,2013-07-24 14:22:00,
2013-07-24 10:32:00,78.0,71.0,29.66,South,184,0.0,2.0,80,0.00,,,0.01,,2013-07-24 14:32:00,
2013-07-24 10:43:00,79.0,72.0,29.66,SSE,167,1.0,3.0,80,0.00,,,0.00,,2013-07-24 14:43:00,
2013-07-24 10:55:00,79.0,71.0,29.66,SSW,212,0.0,8.0,77,0.00,,,0.00,,2013-07-24 14:55:00,
2013-07-24 11:12:00,79.0,71.0,29.67,SE,127,0.0,10.0,77,0.00,,,0.00,,2013-07-24 15:12:00,
2013-07-24 11:22:00,79.0,71.0,29.68,SSW,196,0.0,1.0,76,0.00,,,0.00,,2013-07-24 15:22:00,
2013-07-24 11:33:00,78.0,70.0,29.68,West,260,0.0,1.0,76,0.00,,,0.00,,2013-07-24 15:33:00,
2013-07-24 11:43:00,77.0,70.0,29.68,North,6,5.0,10.0,78,0.00,,,0.00,,2013-07-24 15:43:00,
2013-07-24 11:53:00,76.0,69.0,29.69,South,172,5.0,14.0,80,0.00,,,0.00,,2013-07-24 15:53:00,
2013-07-24 12:02:00,75.0,68.0,29.70,North,352,3.0,7.0,79,0.00,,,0.00,,2013-07-24 16:02:00,
2013-07-24 12:22:00,75.0,68.0,29.70,NE,35,0.0,10.0,78,0.00,,,0.00,,2013-07-24 16:22:00,
2013-07-24 12:33:00,76.0,69.0,29.72,NE,38,0.0,8.0,78,0.00,,,0.00,,2013-07-24 16:33:00,
2013-07-24 12:43:00,77.0,68.0,29.72,West,274,0.0,13.0,75,0.00,,,0.00,,2013-07-24 16:43:00,
2013-07-24 12:53:00,77.0,67.0,29.72,WNW,299,3.0,13.0,71,0.00,,,0.00,,2013-07-24 16:53:00,
2013-07-24 13:03:00,77.0,67.0,29.72,NNW,339,1.0,12.0,72,0.00,,,0.00,,2013-07-24 17:03:00,
2013-07-24 13:12:00,78.0,67.0,29.72,WSW,241,0.0,11.0,70,0.00,,,0.00,,2013-07-24 17:12:00,
2013-07-24 13:22:00,78.0,66.0,29.72,South,179,1.0,4.0,66,0.00,,,0.00,,2013-07-24 17:22:00,
2013-07-24 13:33:00,79.0,68.0,29.72,ESE,107,1.0,8.0,69,0.00,,,0.00,,2013-07-24 17:33:00,
2013-07-24 13:53:00,78.0,67.0,29.72,SSW,208,0.0,4.0,70,0.00,,,0.00,,2013-07-24 17:53:00,
2013-07-24 14:02:00,78.0,67.0,29.72,NNE,23,0.0,3.0,68,0.00,,,0.00,,2013-07-24 18:02:00,
2013-07-24 14:22:00,77.0,67.0,29.72,NNW,330,2.0,10.0,71,0.00,,,0.00,,2013-07-24 18:22:00,
2013-07-24 14:33:00,76.0,66.0,29.72,North,349,0.0,10.0,72,0.00,,,0.00,,2013-07-24 18:33:00,
2013-07-24 14:43:00,76.0,65.0,29.72,North,1,3.0,11.0,70,0.00,,,0.00,,2013-07-24 18:43:00,
2013-07-24 14:52:00,77.0,66.0,29.73,East,95,2.0,7.0,69,0.00,,,0.00,,2013-07-24 18:52:00,
2013-07-24 15:12:00,77.0,68.0,29.73,NNE,14,0.0,7.0,73,0.00,,,0.00,,2013-07-24 19:12:00,
2013-07-24 15:43:00,78.0,67.0,29.72,North,357,1.0,12.0,68,0.00,,,0.00,,2013-07-24 19:43:00,
2013-07-24 15:53:00,78.0,68.0,29.73,North,357,0.0,8.0,72,0.00,,,0.00,,2013-07-24 19:53:00,
2013-07-24 16:13:00,79.0,66.0,29.73,SSW,202,0.0,4.0,64,0.00,,,0.00,,2013-07-24 20:13:00,
2013-07-24 16:23:00,79.0,65.0,29.73,NW,320,4.0,11.0,63,0.00,,,0.00,,2013-07-24 20:23:00,
2013-07-24 16:32:00,78.0,66.0,29.74,WSW,243,0.0,5.0,66,0.00,,,0.00,,2013-07-24 20:32:00,
2013-07-24 16:43:00,79.0,66.0,29.74,WSW,239,0.0,1.0,65,0.00,,,0.00,,2013-07-24 20:43:00,
2013-07-24 16:52:00,79.0,64.0,29.75,NW,315,3.0,8.0,61,0.00,,,0.00,,2013-07-24 20:52:00,
2013-07-24 17:12:00,79.0,64.0,29.75,West,270,1.0,6.0,61,0.00,,,0.00,,2013-07-24 21:12:00,
2013-07-24 17:22:00,78.0,66.0,29.75,North,360,1.0,8.0,66,0.00,,,0.00,,2013-07-24 21:22:00,
2013-07-24 17:32:00,76.0,65.0,29.76,North,350,0.0,8.0,69,0.00,,,0.00,,2013-07-24 21:32:00,
2013-07-24 17:52:00,75.0,65.0,29.77,NW,315,1.0,11.0,70,0.00,,,0.00,,2013-07-24 21:52:00,
2013-07-24 18:02:00,74.0,64.0,29.78,North,354,0.0,11.0,71,0.00,,,0.00,,2013-07-24 22:02:00,
2013-07-24 18:12:00,74.0,64.0,29.78,NE,48,0.0,7.0,72,0.00,,,0.00,,2013-07-24 22:12:00,
2013-07-24 18:43:00,72.0,64.0,29.79,NNW,333,0.0,6.0,75,0.00,,,0.00,,2013-07-24 22:43:00,
2013-07-24 19:02:00,71.0,62.0,29.81,WNW,301,1.0,11.0,74,0.00,,,0.00,,2013-07-24 23:02:00,
2013-07-24 19:52:00,69.0,61.0,29.83,NNE,18,0.0,8.0,75,0.00,,,0.00,,2013-07-24 23:52:00,
2013-07-24 20:02:00,69.0,61.0,29.84,North,4,0.0,8.0,75,0.00,,,0.00,,2013-07-25 00:02:00,
2013-07-24 20:12:00,69.0,61.0,29.84,North,356,1.0,6.0,75,0.00,,,0.00,,2013-07-25 00:12:00,
2013-07-24 20:43:00,67.0,60.0,29.86,NNW,329,4.0,7.0,78,0.00,,,0.00,,2013-07-25 00:43:00,
2013-07-24 23:02:00,60.0,55.0,29.96,NW,305,6.0,16.0,83,0.00,,,0.00,,2013-07-25 03:02:00,
2013-07-24 23:38:00,58.0,53.0,29.97,ESE,123,0.0,7.0,83,0.00,,,0.00,,2013-07-25 03:38:00,
2013-07-24 23:52:00,58.0,53.0,29.98,NNE,16,3.0,8.0,82,0.00,,,0.00,,2013-07-25 03:52:00,